Погода в Селиховых Дворы

Россия / Курская область     51°34′19″N   36°04′31″E
темп.,
°C
ветер,
м/с
пор.,
м/с
влажн.,
%
обл.,
%
осадки,
мм/ч
давл.,
гПа
погр.,
м
31 июля, сб
сб3100:00+18з23820 0.0 100926
03:00+17зсз33790 0.0 100930
06:00+17з22790 0.0 101040
09:00+24з335450 0.0 1010424
12:00+28з35371 0.0 10102131
15:00+30з46333 0.0 10092684
18:00+30зсз353827 0.0 10092051
21:00+22ссз22589 0.0 101112
1 августа, вс
вс100:00+21всв226019 0.0 101118
03:00+19юв22655 0.0 101218
06:00+20ю22635 0.0 101318
09:00+27ю344452 0.0 1012395
12:00+31ююз343173 0.0 10123046
15:00+32зюз553018 0.0 10112272
18:00+31сз223597 0.0 1010583
21:00+26в224328 0.0 101026
2 августа, пн
пн200:00+23юв345154 0.0 101054
03:00+21ю3565100 0.0 101069
06:00+21ююв2362100 0.0 101047
09:00+27ю5742100 0.0 1009456
12:00+32ююз79325 0.0 10082525
15:00+34юз7828100 0.0 10073057
18:00+27ю594618 0.1 1006303
21:00+19юз112094100 3.1 1008588
3 августа, вт
вт300:00+18з2594100 3.3 1007135
03:00+18з5139298 3.3 1008457
06:00+15з5109548 0.0 1010392
09:00+19зсз577434 0.0 1011782
12:00+23зсз565369 0.0 10121531
15:00+25сз564399 0.0 10112229
18:00+22сз3652100 0.0 1012238
21:00+20сз22628 0.0 101330
4 августа, ср
ср400:00+19з226368 0.0 101436
03:00+18сз226994 0.0 101551
06:00+17сз247861 0.0 1016142
09:00+21ссз235919 0.0 1016470
12:00+25зсз344028 0.0 10161984
15:00+25сз453761 0.0 10162235
18:00+23ссз34508 0.0 1016761
21:00+18ссв226364 0.0 101713